Regional Weather Roundup
Issued by NWS

Home | Current Version | Previous Version | Text Only | Print | Product List | Glossary On
Versions: 1 2 3 4 5 6 7 8 9 10 11 12 13 14 15 16 17 18 19 20 21 22 23 24 25 26 27 28 29 30 31 32 33 34 35 36 37 38 39 40 41 42 43 44 45 46 47 48 49 50
000
ASUS43 KTOP 212159
RWRKS

WEATHER ROUNDUP FOR KANSAS
NATIONAL WEATHER SERVICE GOODLAND KS
400 PM CST TUE NOV 21 2017

NOTE:  "FAIR" INDICATES FEW OR NO CLOUDS BELOW 12,000 FEET WITH NO
SIGNIFICANT WEATHER AND/OR OBSTRUCTIONS TO VISIBILITY.

KSZ001>006-013>018-027>032-041>047-212300-
NORTHWEST KANSAS

CITY           SKY/WX    TMP DP  RH WIND       PRES   REMARKS
GOODLAND       SUNNY     46  26  45 N15G23    30.32R
HAYS           SUNNY     47  19  33 N21       30.31R
HILL CITY      SUNNY     48  19  31 N20G29    30.33R
RUSSELL        SUNNY     46  17  31 N23G29    30.31R
$$

KSZ061>065-074>080-084>089-212300-
SOUTHWEST KANSAS

CITY           SKY/WX    TMP DP  RH WIND       PRES   REMARKS
DODGE CITY     SUNNY     50  24  36 N20G31    30.29R
GARDEN CITY    SUNNY     50  25  37 NE21G28   30.29R
GREAT BEND     SUNNY     48  21  34 N18G28    30.30R
LIBERAL        SUNNY     53  27  36 N18G26    30.29R
$$

KSZ066>073-081>083-090>101-212300-
SOUTHEAST KANSAS

CITY           SKY/WX    TMP DP  RH WIND       PRES   REMARKS
CHANUTE        SUNNY     51  17  26 N21G30    30.19R
COFFEYVILLE    SUNNY     55  28  35 N21G28    30.17R
HUTCHINSON     SUNNY     48  19  31 N16G30    30.26R
MEDICINE LODGE   N/A     52  26  36 N21G32    30.24R
NEWTON         SUNNY     45  10  24 N22G33    30.25R
PARSONS        SUNNY     54  27  35 N17G25    30.19R
WICHITA INTL   SUNNY     50  20  30 N28G35    30.23R
WICHITA JABRA  SUNNY     47  13  25 N31G38    30.23R
WICHITA MCCONL SUNNY     49  12  22 N26G38    30.23R
WINFIELD       SUNNY     53  25  33 N21G30    30.22R
$$

KSZ007>012-019>026-033>040-048>060-102>105-212300-
NORTHEAST KANSAS

CITY           SKY/WX    TMP DP  RH WIND       PRES   REMARKS
CONCORDIA      SUNNY     39   7  26 N20G30    30.32R WCI  29
EMPORIA        SUNNY     47  13  25 N20G28    30.22R
LAWRENCE       CLEAR     42  14  32 NW20G28   30.26R
MANHATTAN      SUNNY     42  11  28 N14G22    30.30R
OLATHE IND     CLEAR     45  14  28 NW20      30.22R
OLATHE EXE     CLEAR     44  13  28 N16G31    30.21R
SALINA         SUNNY     46   8  21 N29       30.31R
TOPEKA BILLARD CLEAR     42  16  34 NW15G28   30.27R
TOPEKA FORBES  CLEAR     43  14  31 NW22G32   30.25R
$$



USA.gov is the U.S. government's official web portal to all federal, state and local government web resources and services.